Regional Weather Roundup
Issued by NWS

Home | Current Version | Previous Version | Graphics & Text | Print | Product List | Glossary Off
Versions: 1 2 3 4 5 6 7 8 9 10 11 12 13 14 15 16 17 18 19 20 21 22 23 24 25 26 27 28 29 30 31 32 33 34 35 36 37 38 39 40 41 42 43 44 45 46 47 48 49 50

042
ASUS43 KDMX 290106
RWRIA

WEATHER ROUNDUP FOR IOWA
NATIONAL WEATHER SERVICE DES MOINES IA
800 PM CDT SUN MAY 28 2017

NOTE: "FAIR" INDICATES FEW OR NO CLOUDS BELOW 12,000 FEET WITH NO
SIGNIFICANT WEATHER AND/OR OBSTRUCTIONS TO VISIBILITY.

* - THESE STATIONS ARE NOT NWS STATIONS...THUS NOT UNDER NWS
QUALITY CONTROL.  THEY ALSO DO NOT REPORT WEATHER SUCH
AS PRECIPITATION OR FOG.

IAZ001>003-012>014-020>022-031>034-043>046-290200-
   NORTHWEST IOWA

CITY           SKY/WX    TMP DP  RH WIND       PRES   REMARKS
CARROLL *      CLEAR     75  41  29 NW18G25   29.86R
CHEROKEE *     CLEAR     71  38  30 NW7       29.85R
DENISON *      CLEAR     73  39  29 NW10G17   29.89R
LE MARS *      CLEAR     73  37  27 W10G18    29.86S
ORANGE CITY *  CLEAR     72  43  35 W13       29.85S
SHELDON *      PTCLDY    72  36  26 W13       29.82S
SIOUX CITY     CLEAR     75  39  27 NW12      29.86S
SPENCER        CLEAR     70  40  33 NW13      29.83R
STORM LAKE *   CLEAR     72  37  28 NW15      29.85S
$$

IAZ055>058-069>071-079>083-090>094-290200-
   SOUTHWEST IOWA

CITY           SKY/WX    TMP DP  RH WIND       PRES   REMARKS
ATLANTIC *     CLEAR     72  43  35 NW12G18   29.89R
AUDUBON *      CLEAR     72  39  30 W7        29.89R
CLARINDA *     CLEAR     75  39  27 N13G22    29.91R
COUNCIL BLFS * CLEAR     73  43  33 NW6       29.90S
CRESTON *      CLEAR     72  41  33 NW16      29.88R
HARLAN  *      CLEAR     72  43  35 NW9       29.92S
LAMONI         MOCLDY    74  48  39 NW12      29.86R
RED OAK *      CLEAR     73  41  31 N13G20    29.89S
SHENANDOAH *   CLEAR     75  41  29 N8G15     29.90R
$$

IAZ047>049-059>061-072>074-084-290200-
   CENTRAL IOWA

CITY           SKY/WX    TMP DP  RH WIND       PRES   REMARKS
AMES           CLEAR     73  42  32 NW13      29.81R
ANKENY *       CLEAR     73  43  33 NW13G20   29.83R
BOONE *        CLEAR     72 -36   1 W12G18    29.82R
CHARITON *     PTCLDY    73  50  43 NW7       29.84R
DES MOINES     PTCLDY    75  40  28 NW14      29.82R
GRINNELL*      CLEAR     73  41  31 W10       29.82R
KNOXVILLE *    CLEAR     73  41  31 NW13      29.81S
MARSHALLTOWN   CLEAR     71  45  39 NW15      29.79R
NEWTON *       CLEAR     73  41  31 W12       29.80S
PELLA *        CLEAR     75  39  26 NW10      29.82S
PERRY *          N/A     74  35  23 NW14      29.84R
$$

IAZ004>006-015-016-023>025-035-036-290200-
   NORTH CENTRAL IOWA

CITY           SKY/WX    TMP DP  RH WIND       PRES   REMARKS
ALGONA *       PTCLDY    73  36  25 NW15G26   29.82R
CLARION *      PTCLDY    73  37  27 NW18G26   29.81R
ESTHERVILLE    PTCLDY    68  40  35 NW12      29.82R
FORT DODGE *   CLEAR     73  39  29 NW10G21   29.83S
MASON CITY     PTCLDY    70  39  32 NW13      29.80R
FOREST CITY *    N/A     72  21  15 NW16G23   29.80R
WEBSTER CITY * CLEAR     73  39  29 NW18G26   29.80R
IOWA FALLS *     N/A     73  39  29 W16       29.81S
$$

IAZ007>011-017>019-026>030-037>042-050>054-066-290200-
   NORTHEAST IOWA

CITY           SKY/WX    TMP DP  RH WIND       PRES   REMARKS
CEDAR RAPIDS   PTCLDY    71  48  43 W12       29.77R
CHARLES CITY * CLEAR     72  37  28 NW14      29.77S
CLINTON *      MOCLDY    70  54  56 W7        29.78R
DECORAH *      CLEAR     70  41  35 NW9G15    29.74F
DUBUQUE        MOCLDY    69  48  47 NW5       29.77R
MONTICELLO *   CLEAR     72  48  43 W6        29.76S
OELWEIN *      CLEAR     72  43  35 NW14      29.77S
WATERLOO       CLEAR     72  39  30 W9G20     29.76R
$$

IAZ064-065-067-068-078-290200-
   EAST CENTRAL IOWA

CITY           SKY/WX    TMP DP  RH WIND       PRES   REMARKS
DAVENPORT      CLEAR     73  50  44 W9        29.78S
IOWA CITY      PTCLDY    74  53  48 SW6       29.78F
MT. PLEASANT * CLOUDY    74  46  36 W5        29.80F
MUSCATINE *    CLEAR     73  52  46 SW6       29.78F
QUAD CITIES    PTCLDY    73  49  42 SW8       29.78S
$$

IAZ062-063-075>077-085>089-095>099-290200-
   SOUTHEAST IOWA

CITY           SKY/WX    TMP DP  RH WIND       PRES   REMARKS
BURLINGTON     CLOUDY    72  54  53 CALM      29.81S
FAIRFIELD *    PTCLDY    73  50  43 W9        29.80F
FORT MADISON * PTCLDY    73  48  40 SW3       29.82F
KEOKUK *       PTCLDY    70  52  52 SW5       29.81F
OSKALOOSA *      N/A     72  48  42 W12       29.81S
CENTERVILLE *    N/A     70  54  56 CALM      29.85S
OTTUMWA        PTCLDY    71  48  43 W8        29.81S
WASHINGTON *   PTCLDY    73  52  46 SW8       29.80S
$$

ABBREVIATIONS USED IN REMARKS
   TC - TEMPERATURES IN CELSIUS
  WCI - WIND CHILL INDEX
   HX - HEAT INDEX
  VSB - VISIBILITY
$$





USA.gov is the U.S. government's official web portal to all federal, state and local government web resources and services.